www.pogodaiklimat.ru

Погода и климат >> Архив погоды >> Индия >> Пондичерри >> Карайкал


ПОГОДА в Карайкале

  • Прогноз погоды в Карайкале
  • Монитор погоды в Карайкале

АРХИВ ПОГОДЫ в Карайкале

Время (UTC), дата Ветер
(напр.,м/с)
 
Видим.   Явления Облачность Т
(С)
Тd
(С)
f
(%)
Тe
(С)
Тes
(С)
Комфортность P
(гПа)
Po
(гПа)
Тmin
(С)
Tmax
(С)
R
(мм)
R24
(мм)
S
(см)
21 16.09 ЮЗ 2 4000 м слаб. морось {дождь} 10/5 600 м
[Sc diur, vesp Ac As]
+24.8 +23.6 93 +34 +34 очень
душно
1006.1 1005.3 29
00 17.09 ЮЗ 2 4000 м {дождь, морось} 10/5 600 м
[Sc diur, vesp Ac As]
+24.8 +23.9 95 +34 +34 очень
душно
1005.9 1005.1 29
03 17.09 Ю 2 10 км 8/8 930 м
[]
+27.4 +24.5 84 +39 +40 очень
душно
1007.8 1007.0 +23.6 +33.4 29
06 17.09 ЮЗ 3 10 км 8/5 600 м
[Sc Ac trans Ci fib]
+31.2 +22.4 60 +41 +47 опасность
перегрева
1007.4 1006.6
09 17.09 З 3 10 км 8/3 600 м
[Sc diur, vesp Ac trans Ci fib]
+32.4 +24.1 62 +45 +50 опасность
перегрева
1004.4 1003.6
12 17.09 Ю 2 10 км 9/4 600 м
[Sc Ac trans Ci fib]
+29.8 +22.1 63 +38 +39 очень
душно
1004.0 1003.2 +32.6
15 17.09 Ю 3 4000 м 9/5 600 м
[Cb cap Ac trans Ci fib]
+28.2 +25.4 85 +41 +41 опасность
перегрева
1005.9 1005.1
18 17.09 Ю 3 2000 м слаб. ливневой дождь, в посл. час гроза 10/8 600 м
[Cb cap Ac trans]
+27.2 +25.8 92 +40 +40 очень
душно
1006.9 1006.1 4
21 17.09 З 3 2000 м дождь {гроза} 10/8 540 м
[Cb cap Ac trans]
+24.0 +23.1 95 +32 +32 очень
душно
1005.6 1004.8 48
00 18.09 З 3 2000 м слаб. морось {дождь} 10/9 600 м
[Cb cap Ac trans]
+24.2 +23.6 96 +33 +33 очень
душно
1006.0 1005.2 50
03 18.09 Ю 2 4000 м слаб. морось 10/5 540 м
[Sc Ac As]
+25.4 +24.8 96 +36 +37 очень
душно
1008.6 1007.8 +23.5 +32.6 51
06 18.09 Ю 2 10 км {морось} 10/3 600 м
[Sc Ac As]
+27.4 +24.8 86 +39 +43 очень
душно
1008.6 1007.8
09 18.09 Ю 3 10 км 10/4 600 м
[Sc diur, vesp Ac As]
+29.6 +26.0 81 +44 +47 опасность
перегрева
1005.3 1004.5
12 18.09 ЮЗ 3 10 км 10/4 600 м
[Sc diur, vesp Ac As]
+29.6 +25.1 77 +43 +43 опасность
перегрева
1004.8 1004.0 +30.6
15 18.09 Ю 3 4000 м 9/5 600 м
[Sc Ac trans Ci fib]
+28.0 +25.7 87 +41 +41 опасность
перегрева
1006.7 1005.9
18 18.09 ЮЗ 3 4000 м 8/5 600 м
[Sc Ac trans Ci fib]
+27.8 +25.8 89 +41 +41 опасность
перегрева
1006.8 1006.0
21 18.09 ЮЗ 3 4000 м 8/5 600 м
[Sc Ac trans Ci fib]
+27.6 +25.3 87 +40 +40 очень
душно
1006.2 1005.4 230
00 19.09 ЮЗ 3 4000 м 8/5 600 м
[Sc Ac trans Ci fib]
+26.2 +24.8 92 +37 +37 очень
душно
1006.1 1005.3
03 19.09 Ю 2 10 км 6/3 600 м
[Sc Ac trans Ci fib]
+28.4 +25.3 83 +41 +45 опасность
перегрева
1008.8 1008.0 +30.6 +25.9
06 19.09 ЮЗ 2 10 км 9/6 540 м
[Sc diur, vesp Ac trans]
+31.8 +23.4 61 +43 +47 опасность
перегрева
1008.2 1007.4
09 19.09 ЮВ 2 10 км 10/8 600 м
[Cb cap Ac trans]
+30.6 +24.9 72 +44 +45 опасность
перегрева
1005.8 1005.0
12 19.09 Ю 3 10 км 10/8 600 м
[Cb cap Ac trans]
+29.0 +26.5 86 +44 +44 опасность
перегрева
1006.8 1006.0 +32.8
15 19.09 ЮЗ 3 4000 м 10/5 600 м
[Sc diur, vesp Ac As]
+27.4 +25.7 90 +40 +40 очень
душно
1009.0 1008.2
18 19.09 ЮЗ 2 4000 м 10/5 600 м
[Sc diur, vesp Ac As]
+26.4 +25.0 92 +38 +38 очень
душно
1007.9 1007.1 0.0
21 19.09 ЮЗ 1 4000 м 9/5 600 м
[Sc diur, vesp Ac trans]
+26.0 +24.6 92 +37 +37 очень
душно
1006.7 1005.9 0.0
00 20.09 ЮЗ 2 4000 м 9/5 600 м
[Sc diur, vesp Ac trans]
+26.0 +24.6 92 +37 +37 очень
душно
1006.7 1005.9 0.0
03 20.09 ЮЗ 2 10 км 10/3 600 м
[Sc Ac As]
+27.2 +25.5 90 +40 +41 очень
душно
1008.8 1008.0 +26.0 +32.8 0.0
06 20.09 ЮЗ 2 10 км 10/4 600 м
[Sc Ac As Ci fib]
+30.2 +24.8 73 +43 +49 опасность
перегрева
1008.6 1007.8
09 20.09 ЮЗ 2 10 км 6/4 600 м
[Sc Ac trans Ci fib]
+32.0 +24.6 65 +45 +53 опасность
перегрева
1005.9 1005.1
12 20.09 В 3 10 км 9/1 600 м
[Sc Ac trans Cs]
+30.0 +26.7 83 +47 +47 опасность
перегрева
1005.8 1005.0 +32.5
15 20.09 Ю 2 4000 м 8/5 600 м
[Sc diur, vesp Ac trans]
+28.8 +26.0 85 +43 +43 опасность
перегрева
1007.5 1006.7
18 20.09 ЮЗ 2 4000 м зарница 8/5 600 м
[Cb cap Ac trans]
+27.8 +26.7 94 +43 +43 опасность
перегрева
1007.8 1007.0
21 20.09 ЮЗ 1 4000 м 8/5 600 м
[Sc diur, vesp Ac trans]
+27.4 +26.3 94 +42 +42 опасность
перегрева
1007.1 1006.3
00 21.09 ЮЗ 2 4000 м 10/5 540 м
[Sc diur, vesp Ac As]
+27.0 +26.2 95 +41 +41 опасность
перегрева
1007.0 1006.2
03 21.09 Ю 2 10 км 8/5 600 м
[Sc Ac trans Ci fib]
+28.6 +25.5 83 +42 +45 опасность
перегрева
1008.7 1007.9 +26.6 +32.5
06 21.09 Ю 2 10 км 8/5 600 м
[Sc Ac trans Ci fib]
+31.6 +24.5 66 +44 +52 опасность
перегрева
1007.4 1006.6
09 21.09 Ю 2 10 км 8/3 600 м
[Sc Ac trans Ci sp]
+32.0 +25.5 69 +47 +53 опасность
перегрева
1004.9 1004.1
12 21.09 Ю 2 10 км 5/1 600 м
[Sc Ac trans Ci fib]
+30.6 +27.0 81 +48 +48 опасность
перегрева
1004.8 1004.0 +32.8
15 21.09 Ю 2 4000 м 3/1 600 м
[Sc Ci fib]
+28.8 +27.1 91 +46 +46 опасность
перегрева
1006.2 1005.4
18 21.09 ЮЗ 3 4000 м 3/1 600 м
[Sc Ci fib]
+28.0 +26.9 94 +44 +44 опасность
перегрева
1007.2 1006.4
21 21.09 штиль 0 4000 м 6/4 600 м
[Sc Ci fib]
+27.2 +26.1 94 +41 +41 опасность
перегрева
1005.8 1005.0
00 22.09 Ю 2 4000 м 5/4 600 м
[Sc Ci fib]
+27.0 +25.3 90 +39 +39 очень
душно
1006.1 1005.3
03 22.09 З 2 10 км 6/1 600 м
[Sc Ac trans Ci fib]
+28.8 +25.7 83 +43 +47 опасность
перегрева
1008.3 1007.5 +26.7 +32.8
06 22.09 штиль 0 10 км 6/3 600 м
[Sc Ac trans Ci fib]
+32.2 +24.8 65 +45 +61 опасность
перегрева
1007.8 1007.0
09 22.09 Ю 1 10 км 8/5 600 м
[Cb cap Ac trans]
+32.0 +26.4 72 +48 +54 опасность
перегрева
1005.4 1004.6
12 22.09 Ю 2 10 км 9/3 600 м
[Sc Ac As Ci fib]
+30.0 +25.2 76 +44 +44 опасность
перегрева
1005.6 1004.8 +33.0
15 22.09 ЮЗ 2 4000 м 8/5 600 м
[Sc Ac trans Ci fib]
+28.0 +26.0 89 +42 +42 опасность
перегрева
1008.2 1007.4
18 22.09 ЮЗ 2 4000 м 8/5 600 м
[Sc Ac trans Ci fib]
+28.2 +26.5 91 +44 +44 опасность
перегрева
1008.8 1008.0
21 22.09 ЮЗ 2 4000 м 8/5 600 м
[Sc Ac trans Ci fib]
+26.2 +23.3 84 +35 +35 очень
душно
1007.2 1006.4
00 23.09 ЮЗ 2 4000 м 8/5 600 м
[Sc Ac trans Ci fib]
+25.8 +24.6 93 +36 +36 очень
душно
1007.6 1006.8
03 23.09 штиль 0 10 км 8/3 600 м
[Sc diur, vesp Ac trans Ci fib]
+27.0 +24.4 86 +38 +42 очень
душно
1009.4 1008.6 +25.7 +33.0
06 23.09 ЮВ 2 10 км 8/3 600 м
[Sc Ac trans]
+31.0 +25.4 72 +45 +53 опасность
перегрева
1008.4 1007.6
09 23.09 В 3 10 км 6/4 600 м
[Sc Ci fib]
+31.0 +26.3 76 +47 +53 опасность
перегрева
1005.6 1004.8
12 23.09 ЮВ 3 10 км 8/4 600 м
[Sc Ac trans Ci fib]
+29.4 +25.4 79 +43 +43 опасность
перегрева
1005.6 1004.8 +32.0
15 23.09 ЮВ 2 4000 м зарница 5/3 600 м
[Cb cap Ac trans Ci fib]
+28.4 +25.6 85 +42 +42 опасность
перегрева
1007.5 1006.7
18 23.09 ЮЗ 2 4000 м гроза без осадков {морось} 9/5 600 м
[Cb cap Ac trans Ci fib]
+27.2 +25.5 90 +40 +40 очень
душно
1009.0 1008.2 0.0

 

Местоположение метеостанции Карайкал (Пондичерри, Индия): широта 10.92 долгота 79.83 высота над уровнем моря 7 м.

В архиве по умолчанию представлена погода в Карайкале за последнюю неделю. Архивные данные за месяц целиком и за предыдущие месяцы, начиная с января 2011 года, Вы можете получить, выбрав интересующий диапазон дат из раскрывающегося списка и нажав кнопку "Ввод!".


*Определитесь, кто Вы:
робот инопланетянин человек

Внимание! Время в таблицах - всемирное. Для получения местного времени необходимо прибавить поправку, которая равна 5.5 ч.

Смотрите также архив погоды в соседних городах и на ближайших метеорологических станциях:

Погода в Нагапаттинаме (Тамилнад, Индия) (17 км)
Погода в Парангипеттае (Тамилнад, Индия) (65 км)
Погода в Танджавуре (Тамилнад, Индия) (78 км)
Погода в Адирампаттинаме (Тамилнад, Индия) (82 км)
Погода в Куддалоре (Тамилнад, Индия) (95 км)
Погода в Пондичерри (Пондичерри, Индия) (117 км)
Погода в Тиручирапалли (Тамилнад, Индия) (122 км)
Погода в Кудумиянмалае (Тамилнад, Индия) (139 км)
Погода в Джафне (Шри Ланка) (143 км)
Погода в Тонди (Тамилнад, Индия) (159 км)

Пояснения к столбцам:

Ветер - указаны скорость ветра в м/с - средняя за 10 мин, порывы в срок и между сроками (в фигурных скобках) и направление, откуда дует ветер: С - северный, СВ - северо-восточный, В - восточный, ЮВ - юго-восточный, Ю - южный, ЮЗ - юго-западный, З - западный, СЗ - северо-западный.
Видимость - горизонтальная дальность видимости в метрах или километрах. При видимости от 1 до 10 км при отсутствии осадков обычно наблюдается дымка, при ухудшении видимости до 1 км и менее - туман. В сухую погоду видимость может ухудшаться дымом, пылью или мглою.
Явления - указаны атмосферные явления, наблюдавшиеся в срок или в последний час перед сроком; фигурными скобками обозначены явления, наблюдавшиеся между сроками (за 1-3 часа до срока); квадратными скобками обозначены град или гололедные отложения с указанием их диаметра в мм.
Облачность - указаны через наклонную черту общая и нижняя облачность в баллах и высота нижней границы облаков в метрах; квадратными скобками обозначены формы облаков: Ci - перистые, Cs - перисто-слоистые, Cc - перисто-кучевые, Ac - высококучевые, As - высокослоистые, Sc - слоисто-кучевые, Ns - слоисто-дождевые, Cu - кучевые, Cb - кучево-дождевые. Подробнее классификацию облаков см. в Атласе облаков (PDF).
T - Температура воздуха - температура, измеренная на высоте 2 м над землей.
Td - Температура точки росы - температура, при понижении до которой содержащийся в воздухе водяной пар достигнет насыщения.
f - Относительная влажность воздуха - влажноcть воздуха, измеренная на высоте 2 м над землей.
Te - Эффективная температура - температура, которую ощущает одетый по сезону человек в тени. Характеристика душности погоды. При расчете учитывается влияние влажности воздуха и скорости ветра на теплоощущения человека.
Tes - Эффективная температура на солнце - температура, которую ощущает человек, с поправкой на солнечный нагрев. Характеристика знойности погоды. Зависит от высоты солнца над горизонтом, облачности и скорости ветра. Ночью, в пасмурную погоду, а также при ветре 12 м/с и более поправка равна нулю.
P - Атмосферное давление - приведенное к уровню моря атмосферное давление.
Po - Атмосферное давление - измеренное на уровне метеостанции атмосферное давление.
Tmin - Минимальная температура - минимум температуры воздуха на высоте 2 м над землей.
Tmax - Максимальная температура - максимум температуры воздуха на высоте 2 м над землей.
R - Количество осадков - Количество выпавших осадков за период времени, мм. При наведении курсора мыши на число - период времени, за который выпало указанное количество осадков.
R24 - Количество осадков - Количество выпавших осадков за 24 часа, мм.
S - Снежный покров - Высота снежного покрова, см. При наведении курсора мыши на число - состояние снежного покрова и степень покрытия местности в баллах.